Regional Weather Roundup
Issued by NWS

Home | Current Version | Previous Version | Text Only | Print | Product List | Glossary Off
Versions: 1 2 3 4 5 6 7 8 9 10 11 12 13 14 15 16 17 18 19 20 21 22 23 24 25 26 27 28 29 30 31 32 33 34 35 36 37 38 39 40 41 42 43 44 45 46 47 48 49 50

000
ASUS43 KBIS 270910
RWRND

NORTH DAKOTA REGIONAL WEATHER ROUNDUP
NATIONAL WEATHER SERVICE BISMARCK ND
400 AM CDT TUE JUN 27 2017

NOTE: "FAIR" INDICATES FEW OR NO CLOUDS BELOW 12,000 FEET WITH NO
SIGNIFICANT WEATHER AND/OR OBSTRUCTIONS TO VISIBILITY.


NDZ001>003-009>011-017-271000-
NORTHWEST NORTH DAKOTA

CITY           SKY/WX    TMP DP  RH WIND       PRES   REMARKS
WILLISTON      MOCLDY    68  42  38 S12       29.76F
MINOT          CLOUDY    63  39  41 S22G31    29.82F
MINOT AFB      CLOUDY    62  40  45 S15       29.81F
$$

NDZ018>021-031>035-040>046-271000-
SOUTHWEST NORTH DAKOTA

CITY           SKY/WX    TMP DP  RH WIND       PRES   REMARKS
BISMARCK       MOCLDY    60  40  47 S13G24    29.93F
DICKINSON      MOCLDY    59  33  37 S25G33    29.80F
GARRISON         N/A     61  40  45 S16G24    29.86F
HETTINGER ARPT CLEAR     58  35  42 SE14G22   29.86F
$$

NDZ004>008-012>016-024-026-027-054-271000-
NORTHEAST NORTH DAKOTA

CITY           SKY/WX    TMP DP  RH WIND       PRES   REMARKS
GRAND FORKS    CLEAR     48  42  80 S8        29.96F
GRND FRKS AFB  CLEAR     49  40  71 S6        29.95F
DEVILS LAKE    CLOUDY    58  43  57 S14       29.93F
$$

NDZ022-023-025-028>030-036>039-047>053-271000-
SOUTHEAST NORTH DAKOTA

CITY           SKY/WX    TMP DP  RH WIND       PRES   REMARKS
FARGO          CLEAR     53  41  63 S9        30.00F
JAMESTOWN      CLOUDY    49  40  71 S8        29.97F
$$





USA.gov is the U.S. government's official web portal to all federal, state and local government web resources and services.